Location: Keppel Henge
(44.7900°N, 80.9447°W)
Time: 13:35:07
(UTC-04:00)

Vanguard 1 Rocket - Visible Passes

Search period start: 21 August 2018 00:00
Search period end: 31 August 2018 00:00
Orbit: 650 x 4226 km, 34.3° (Epoch: 20 August)

Date Brightness Start Highest point End Pass type
(mag) Time Alt. Az. Time Alt. Az. Time Alt. Az.
21 Aug 9.8 02:28:24 47° SSW 02:33:21 57° SSE 02:57:03 10° E visible
21 Aug 10.5 04:45:39 13° W 05:03:39 61° S 05:29:10 10° ESE visible
21 Aug 11.0 23:03:42 11° E 23:03:42 11° E 23:04:41 10° E visible
22 Aug 9.8 01:20:57 47° SSE 01:20:57 47° SSE 01:41:13 10° E visible
22 Aug 10.2 03:38:13 29° WSW 03:49:22 62° S 04:14:39 10° ESE visible
22 Aug 10.8 06:00:01 10° W 06:20:21 52° SSW 06:44:30 10° SE visible
23 Aug 10.3 00:13:34 29° ESE 00:13:34 29° ESE 00:25:03 10° E visible
23 Aug 9.7 02:30:50 48° SSW 02:35:44 59° SSE 02:59:21 10° E visible
23 Aug 10.5 04:48:06 11° W 05:05:57 58° SSW 05:31:13 10° ESE visible
23 Aug 10.9 23:06:14 13° E 23:06:14 13° E 23:08:19 10° E visible
24 Aug 9.7 01:23:30 50° SSE 01:23:30 50° SSE 01:43:34 10° E visible
24 Aug 10.2 03:40:47 28° WSW 03:51:47 61° S 04:16:49 10° ESE visible
24 Aug 10.8 06:02:57 10° W 06:22:26 47° SSW 06:46:07 10° SE visible
25 Aug 10.2 00:16:15 32° ESE 00:16:15 32° ESE 00:27:36 10° E visible
25 Aug 9.7 02:33:32 49° SW 02:38:12 60° S 03:01:34 10° ESE visible
25 Aug 10.5 04:50:48 11° W 05:08:14 54° SSW 05:33:04 10° SE visible
25 Aug 10.8 23:09:05 14° E 23:09:05 14° E 23:11:27 10° E visible
26 Aug 9.6 01:26:23 53° SSE 01:26:23 53° SSE 01:45:52 10° E visible
26 Aug 10.1 03:43:40 28° WSW 03:54:14 59° S 04:18:50 10° ESE visible
26 Aug 10.8 06:06:02 10° W 06:24:29 42° SSW 06:47:24 10° SSE visible
26 Aug10.322:02:01E22:02:01E21:42:01Svisible
27 Aug 10.2 00:19:19 32° ESE 00:19:19 32° ESE 00:30:04 10° E visible
27 Aug 9.6 02:36:37 50° SW 02:40:45 59° S 03:03:43 10° ESE visible
27 Aug 10.5 04:53:56 11° W 05:10:32 50° SSW 05:34:40 10° SE visible
27 Aug 10.4 23:12:24 13° E 23:12:24 13° E 23:14:20 10° E visible
28 Aug 9.6 01:29:42 53° SSE 01:29:42 53° SSE 01:48:07 10° E visible
28 Aug 10.1 03:47:01 29° WSW 03:56:42 55° SSW 04:20:41 10° ESE visible
28 Aug 10.9 06:09:17 10° W 06:26:33 36° SSW 06:48:18 10° SSE visible
29 Aug 10.3 00:22:56 31° ESE 00:22:56 31° ESE 00:32:28 10° E visible
29 Aug 9.6 02:40:16 52° SW 02:43:20 57° S 03:05:46 10° ESE visible
29 Aug 10.5 04:57:36 13° W 05:12:49 44° SSW 05:35:59 10° SE visible
29 Aug 10.0 23:16:19 11° E 23:16:19 11° E 23:17:02 10° E visible
30 Aug 9.7 01:33:40 50° SE 01:33:40 50° SE 01:50:19 10° ESE visible
30 Aug 10.1 03:51:02 32° WSW 03:59:11 51° SSW 04:22:20 10° SE visible
30 Aug 10.9 06:12:48 10° W 06:28:38 30° SW 06:48:41 10° SSE visible
30 Aug 9.5 21:49:15 10° S 21:51:06 15° SSE 21:51:06 15° SSE visible
